This is the latest recevied weather packets stored in our database for station/object W8AN. If no packets are shown the sender has not sent any weather packets the latest 1 day(s).
| Time | Temp. | Humidity | Pressure | Rain* | Wind** | Luminosity | Snow |
|---|---|---|---|---|---|---|---|
| 1778002601 | 12.78° C | 75% | 4262.3 hPa | 0 mm | 1.34 m/s, 266° | 113 W/m² | - |
| 1778002298 | 12.78° C | 72% | 4262.6 hPa | 0 mm | 3.58 m/s, 230° | 78 W/m² | - |
| 1778001995 | 13.33° C | 75% | 4262.7 hPa | 1.78 mm | 1.79 m/s, 264° | 92 W/m² | - |
| 1778001692 | 13.33° C | 74% | 4262.5 hPa | 1.78 mm | 1.34 m/s, 274° | 85 W/m² | - |
| 1778001386 | 13.89° C | 71% | 4262.5 hPa | 0 mm | 1.34 m/s, 275° | 86 W/m² | - |
| 1778001084 | 13.89° C | 70% | 4262.5 hPa | 0 mm | 1.34 m/s, 259° | 81 W/m² | - |
| 1778000781 | 13.89° C | 68% | 4262.6 hPa | 0 mm | 1.79 m/s, 256° | 83 W/m² | - |
| 1778000477 | 14.44° C | 67% | 4262.9 hPa | 0 mm | 3.13 m/s, 269° | 101 W/m² | - |
| 1778000172 | 14.44° C | 66% | 4262.7 hPa | 0 mm | 3.13 m/s, 293° | 108 W/m² | - |
| 1777999868 | 14.44° C | 65% | 4263 hPa | 0 mm | 3.58 m/s, 300° | 89 W/m² | - |
| 1777999564 | 14.44° C | 68% | 4262.7 hPa | 0 mm | 3.13 m/s, 287° | 82 W/m² | - |
| 1777999262 | 14.44° C | 69% | 4262.7 hPa | 0 mm | 2.68 m/s, 263° | 88 W/m² | - |
| 1777998960 | 15° C | 70% | 4262.6 hPa | 0 mm | 4.02 m/s, 295° | 96 W/m² | - |
| 1777998657 | 15° C | 72% | 4262.7 hPa | 0 mm | 3.13 m/s, 275° | 87 W/m² | - |
| 1777998355 | 15° C | 72% | 4262.7 hPa | 0 mm | 4.02 m/s, 286° | 85 W/m² | - |
| 1777998052 | 15° C | 71% | 4262.8 hPa | 0 mm | 4.47 m/s, 281° | 60 W/m² | - |
| 1777997749 | 15.56° C | 71% | 4262.5 hPa | 0 mm | 5.36 m/s, 301° | 44 W/m² | - |
| 1777997447 | 15.56° C | 71% | 4262.5 hPa | 0 mm | 4.02 m/s, 262° | 65 W/m² | - |
| 1777997144 | 15.56° C | 72% | 4262.6 hPa | 0 mm | 5.36 m/s, 272° | 84 W/m² | - |
| 1777996841 | 15.56° C | 73% | 4262.7 hPa | 0 mm | 3.58 m/s, 273° | 65 W/m² | - |
| 1777996539 | 15.56° C | 72% | 4262.7 hPa | 0 mm | 4.92 m/s, 243° | 59 W/m² | - |
| 1777996234 | 15.56° C | 73% | 4262.6 hPa | 0 mm | 4.02 m/s, 237° | 60 W/m² | - |
| 1777995930 | 15.56° C | 73% | 4262.6 hPa | 0 mm | 3.13 m/s, 271° | 75 W/m² | - |
| 1777995626 | 15.56° C | 73% | 4262.6 hPa | 0 mm | 5.81 m/s, 273° | 56 W/m² | - |
| 1777995324 | 15.56° C | 74% | 4262.6 hPa | 0 mm | 3.58 m/s, 267° | 45 W/m² | - |
* Rain latest hour (hover to see other rain measurements)
** Current wind speed in m/s (hover to see current wind gust speed)